Mc Call Creek, Mississippi
Current Conditions -  °F | °C
As of 5:15 AM on Wednesday 22 Oct 2014 (Local Time) from K1R7 Reporting Station
Haze Haze  
Wind Chill: 54°   Ceiling: Unl
Heat Index: 54°   Visibility: 5mi
Dew Point: 54°   Wind: 0mph
Humidity: 100%   Direction: NA
Pressure: 30.09"   Gusts: NA
Location:  31.5295°N, 90.7634°W
Report Text: K1R7 221015Z AUTO 00000KT 5SM BR CLR 12/12 A3009 RMK AO2
Loading
Personal Weather Stations






























Interactive Weather Map
Tropical Storm Tracking
New forecast layout! Learn more

10-Day Weather Forecast

Advertisements
Track Severe Weather on mobile